Preview of NWS' New Version of Forecast
This preview is not operational and should not be used for support decisions.

Regional Weather Roundup (RWR)

Issued by National Weather Service (NWS)

                            
000
ASUS43 KLSX 231407
RWRMO 

WEATHER SUMMARY FOR MISSOURI
NATIONAL WEATHER SERVICE SPRINGFIELD MO
900 AM CDT TUE JUL 23 2019

NOTE: "FAIR" INDICATES FEW OR NO CLOUDS BELOW 12,000 FEET WITH NO
       SIGNIFICANT WEATHER AND/OR OBSTRUCTIONS TO VISIBILITY.
       CURRENT SKY AND/OR WEATHER CONDITIONS ARE NOT AVAILABLE FOR
       CHILLICOTHE AND FARMINGTON.

MOZ001>031-035>038-043-044-053-054-231500-
...NORTHERN AND WESTERN MISSOURI...
  
CITY           SKY/WX    TMP DP  RH WIND       PRES   REMARKS
KANSAS CTY INT MOSUNNY   68  58  70 N8        30.28R                  
KANSAS C DTWN  SUNNY     70  55  59 NE3       30.27S                  
LEE'S SUMMIT   MOSUNNY   68  56  65 NE6       30.28R                  
ST JOSEPH      SUNNY     68  58  70 N5        30.29S                  
CHILLICOTHE      N/A     69  58  67 N6        30.28S                  
KIRKSVILLE     SUNNY     71  57  61 N9        30.26S                  
     
$$
MOZ066>068-077>081-088>096-101>105-231500-
...SOUTHWEST MISSOURI...
  
CITY           SKY/WX    TMP DP  RH WIND       PRES   REMARKS
SPRINGFIELD    SUNNY     70  63  78 NE9       30.22S                  
JOPLIN         SUNNY     69  61  75 NE6       30.24S                  
BRANSON        SUNNY     72  63  73 NW6       30.22R                  
               
$$
MOZ032>034-039>042-045>050-055>058-069>072-231500-
...CENTRAL MISSOURI...  
  
CITY           SKY/WX    TMP DP  RH WIND       PRES   REMARKS
COLUMBIA       SUNNY     72  59  63 N8        30.23R                  
ROLLA          SUNNY     70  61  73 N8        30.22S                  
SEDALIA        SUNNY     67  62  84 N5        30.26R                  
WHITEMAN AFB   MOSUNNY   68  62  82 N7        30.22R                  
WARRENSBURG    SUNNY     68  59  73 CALM      30.26R                  
OSAGE BEACH    SUNNY     70  63  78 VRB5      30.24R                  
               
$$
MOZ051-052-059>065-231500-
...EAST CENTRAL MISSOURI...
  
CITY           SKY/WX    TMP DP  RH WIND       PRES   REMARKS
ST LOUIS INTL  SUNNY     71  56  58 N9        30.19R                  
SPIRIT OF STL  SUNNY     73  59  61 N7        30.18R                  
ST CHARLES       N/A    N/A N/A N/A MISG      30.18R                  
                   
$$
MOZ072>076-082>087-097>100-106>115-231500-
...SOUTH CENTRAL AND SOUTHEAST MISSOURI...
  
CITY           SKY/WX    TMP DP  RH WIND       PRES   REMARKS
CAPE GIRARDEAU FAIR      72  56  57 N13       30.13R                  
FARMINGTON     SUNNY     69  58  67 N9        30.18R                  
POPLAR BLUFF   FAIR      72  59  63 N10       30.13S                  
WEST PLAINS    SUNNY     72  60  66 N9        30.20S                  
                                       
$$